Weather History for Eastman, GA

Change the Weather History Date:

Sunday, April 27, 2014

  Actual Average Record
Temperature  
Mean Temperature 73 °F -  
Max Temperature 88 °F 77 °F 88 °F (2014)
Min Temperature 58 °F 54 °F 51 °F (2013)
Cooling Degree Days 8    
Growing Degree Days 23 (Base 50)    
Moisture  
Dew Point 65 °F    
Average Humidity 77    
Maximum Humidity 100    
Minimum Humidity 43    
Precipitation  
Precipitation 0.00 in - - ()
Sea Level Pressure  
Sea Level Pressure 30.00 in    
Wind  
Wind Speed 2 mph (South)    
Max Wind Speed 12 mph    
Max Gust Speed -    
Visibility 8 miles    
Events Fog    
Averages and records for this station are not official NWS values.
T = Trace of Precipitation, MM = Missing Value Source: NWS Daily Summary

Daily Weather History Graph

Daily Weather History Graph

Search for Another Location

Airport:

Trip Planner

Search our weather history database for the weather conditions in past years. The results will help you decide how hot, cold, wet, or windy it might be!

Date:

Astronomy

Apr. 27, 2014 Rise Set
Actual Time 6:50 AM EDT 8:10 PM EDT
Civil Twilight 6:24 AM EDT 8:36 PM EDT
Nautical Twilight 5:53 AM EDT 9:07 PM EDT
Astronomical Twilight 5:21 AM EDT 9:39 PM EDT
Moon 5:43 AM EDT (4/27) 6:48 PM EDT (4/27)
Length of Visible Light 14h 11m
Length of Day
13h 20m
Waning Crescent, 3% of the Moon is Illuminated
Apr 27
Waning Crescent
Apr 29
New
May 6
First Quarter
May 14
Full
May 21
Last Quarter

Hourly Weather History & Observations

Time (EDT) Temp. Heat Index Dew Point Humidity Pressure Visibility Wind Dir Wind Speed Gust Speed Precip Events Conditions
12:15 AM 62.8 °F - 62.8 °F 100% 30.02 in 0.5 mi Calm Calm - N/A Fog Fog
12:35 AM 62.6 °F - 62.6 °F 100% 30.02 in 0.2 mi Calm Calm - N/A Fog Fog
12:55 AM 62.8 °F - 62.8 °F 100% 30.02 in 5.0 mi Calm Calm - N/A   Scattered Clouds
1:15 AM 65.1 °F - 64.4 °F 98% 30.02 in 10.0 mi SSE 3.5 mph - N/A   Clear
1:35 AM 63.3 °F - 63.3 °F 100% 30.01 in 10.0 mi Calm Calm - N/A   Clear
2:15 AM 64.6 °F - 63.1 °F 95% 30.01 in 10.0 mi SSE 4.6 mph - N/A   Clear
2:35 AM 64.0 °F - 62.6 °F 95% 30.01 in 10.0 mi SSE 3.5 mph - N/A   Clear
2:55 AM 64.2 °F - 62.8 °F 95% 30.00 in 10.0 mi SSE 4.6 mph - N/A   Clear
3:15 AM 63.5 °F - 62.6 °F 97% 30.00 in 10.0 mi Calm Calm - N/A   Clear
3:35 AM 63.1 °F - 62.2 °F 97% 30.00 in 10.0 mi SSE 3.5 mph - N/A   Clear
3:55 AM 64.2 °F - 62.6 °F 94% 30.00 in 10.0 mi Calm Calm - N/A   Clear
4:15 AM 62.2 °F - 62.2 °F 100% 30.00 in 10.0 mi Calm Calm - N/A   Clear
4:35 AM 61.0 °F - 61.0 °F 100% 30.00 in 7.0 mi Calm Calm - N/A   Clear
4:55 AM 61.2 °F - 61.2 °F 100% 30.00 in 7.0 mi Calm Calm - N/A   Clear
5:15 AM 60.4 °F - 60.4 °F 100% 30.00 in 2.0 mi Calm Calm - N/A   Clear
5:35 AM 60.1 °F - 60.1 °F 100% 30.00 in 1.8 mi Calm Calm - N/A   Mist
5:55 AM 59.5 °F - 59.5 °F 100% 30.01 in 0.8 mi Calm Calm - N/A   Mist
6:15 AM 60.6 °F - 60.6 °F 100% 30.01 in 5.0 mi Calm Calm - N/A   Clear
6:35 AM 58.8 °F - 58.8 °F 100% 30.01 in 1.0 mi Calm Calm - N/A   Mist
6:55 AM 59.0 °F - 59.0 °F 100% 30.02 in 2.5 mi Calm Calm - N/A   Clear
7:15 AM 59.2 °F - 59.2 °F 100% 30.03 in 0.2 mi Calm Calm - N/A Fog Fog
7:35 AM 59.9 °F - 59.9 °F 100% 30.04 in 1.8 mi Calm Calm - N/A   Mist
7:55 AM 61.2 °F - 61.2 °F 100% 30.05 in 5.0 mi Calm Calm - N/A   Clear
8:15 AM 63.5 °F - 63.5 °F 100% 30.05 in 10.0 mi Calm Calm - N/A   Clear
8:35 AM 65.3 °F - 65.1 °F 99% 30.05 in 10.0 mi Calm Calm - N/A   Clear
8:55 AM 68.4 °F - 66.7 °F 95% 30.05 in 10.0 mi Calm Calm - N/A   Clear
9:15 AM 71.8 °F - 68.5 °F 89% 30.05 in 10.0 mi South 3.5 mph - N/A   Clear
9:35 AM 74.1 °F - 69.1 °F 84% 30.05 in 10.0 mi South 4.6 mph - N/A   Clear
9:55 AM 76.1 °F - 69.6 °F 80% 30.05 in 10.0 mi South 3.5 mph - N/A   Clear
10:15 AM 77.9 °F - 69.8 °F 76% 30.05 in 10.0 mi South 4.6 mph - N/A   Clear
10:35 AM 79.0 °F - 69.6 °F 73% 30.05 in 10.0 mi SSE 3.5 mph - N/A   Clear
10:55 AM 80.4 °F 83.6 °F 70.0 °F 70% 30.05 in 10.0 mi South 5.8 mph - N/A   Clear
11:15 AM 81.5 °F 85.3 °F 70.3 °F 69% 30.05 in 10.0 mi SSE 4.6 mph - N/A   Clear
11:35 AM 82.8 °F 86.7 °F 70.0 °F 65% 30.05 in 10.0 mi South 4.6 mph - N/A   Clear
11:55 AM 83.8 °F 87.8 °F 69.6 °F 62% 30.05 in 10.0 mi SSE 6.9 mph - N/A   Mostly Cloudy
12:15 PM 84.6 °F 87.1 °F 66.9 °F 55% 30.03 in 10.0 mi SE 3.5 mph - N/A   Mostly Cloudy
12:35 PM 85.3 °F 87.9 °F 66.7 °F 54% 30.02 in 10.0 mi SSE 5.8 mph - N/A   Scattered Clouds
12:55 PM 84.4 °F 85.9 °F 64.6 °F 51% 30.02 in 10.0 mi South 3.5 mph - N/A   Mostly Cloudy
1:35 PM 85.3 °F 86.4 °F 63.5 °F 48% 30.01 in 10.0 mi South 11.5 mph - N/A   Scattered Clouds
1:55 PM 85.5 °F 86.8 °F 64.2 °F 49% 30.00 in 10.0 mi South 8.1 mph - N/A   Mostly Cloudy
2:15 PM 88.0 °F 89.6 °F 64.6 °F 46% 30.00 in 10.0 mi ESE 6.9 mph - N/A   Scattered Clouds
2:35 PM 88.0 °F 89.0 °F 63.5 °F 44% 30.00 in 10.0 mi SSW 9.2 mph - N/A   Clear
2:55 PM 88.3 °F 89.9 °F 64.2 °F 45% 29.99 in 10.0 mi South 5.8 mph - N/A   Mostly Cloudy
3:15 PM 87.4 °F 88.8 °F 64.2 °F 46% 29.98 in 10.0 mi SSW 5.8 mph - N/A   Scattered Clouds
3:35 PM 87.8 °F 88.5 °F 62.8 °F 43% 29.98 in 10.0 mi South 5.8 mph - N/A   Clear
3:55 PM 87.6 °F 88.5 °F 63.0 °F 44% 29.97 in 10.0 mi South 8.1 mph - N/A   Scattered Clouds
4:15 PM 88.0 °F 89.0 °F 63.9 °F 44% 29.96 in 10.0 mi WSW 6.9 mph - N/A   Scattered Clouds
4:35 PM 87.8 °F 88.8 °F 63.3 °F 44% 29.94 in 10.0 mi SSE 11.5 mph - N/A   Scattered Clouds
4:55 PM 87.8 °F 88.5 °F 63.0 °F 43% 29.95 in 10.0 mi SSW 8.1 mph - N/A   Scattered Clouds
5:15 PM 87.1 °F 88.0 °F 63.1 °F 45% 29.95 in 10.0 mi SSW 3.5 mph - N/A   Scattered Clouds
5:35 PM 87.4 °F 88.5 °F 63.5 °F 45% 29.94 in 10.0 mi SW 4.6 mph - N/A   Scattered Clouds
6:15 PM 85.8 °F 87.4 °F 64.6 °F 49% 29.95 in 10.0 mi Calm Calm - N/A   Scattered Clouds
6:35 PM 86.0 °F 87.9 °F 65.5 °F 50% 29.94 in 10.0 mi Calm Calm - N/A   Scattered Clouds
6:55 PM 86.2 °F 88.4 °F 66.4 °F 51% 29.94 in 10.0 mi South 3.5 mph - N/A   Scattered Clouds
7:15 PM 84.4 °F 86.8 °F 66.6 °F 55% 29.94 in 10.0 mi SSW 3.5 mph - N/A   Clear
7:35 PM 82.9 °F 85.0 °F 65.8 °F 56% 29.95 in 10.0 mi SSW 3.5 mph - N/A   Clear
7:55 PM 81.0 °F 83.2 °F 66.6 °F 61% 29.95 in 10.0 mi Calm Calm - N/A   Clear
8:15 PM 77.7 °F - 68.0 °F 72% 29.96 in 10.0 mi Calm Calm - N/A   Scattered Clouds
8:35 PM 77.0 °F - 68.9 °F 76% 29.96 in 10.0 mi Calm Calm - N/A   Clear
8:55 PM 75.4 °F - 67.8 °F 77% 29.96 in 10.0 mi Calm Calm - N/A   Clear
9:15 PM 74.1 °F - 68.0 °F 81% 29.96 in 10.0 mi Calm Calm - N/A   Clear
9:35 PM 73.4 °F - 68.5 °F 85% 29.97 in 10.0 mi Calm Calm - N/A   Clear
9:55 PM 72.0 °F - 69.8 °F 93% 29.96 in 10.0 mi Calm Calm - N/A   Clear
10:15 PM 71.2 °F - 69.8 °F 95% 29.97 in 10.0 mi Calm Calm - N/A   Clear
10:35 PM 71.4 °F - 70.0 °F 95% 29.96 in 10.0 mi Calm Calm - N/A   Clear
10:55 PM 72.5 °F - 69.4 °F 90% 29.97 in 10.0 mi Calm Calm - N/A   Clear
11:15 PM 71.1 °F - 69.4 °F 95% 29.98 in 10.0 mi Calm Calm - N/A   Clear
11:35 PM 72.9 °F - 69.4 °F 89% 29.98 in 10.0 mi Calm Calm - N/A   Clear
11:55 PM 72.9 °F - 70.2 °F 91% 29.97 in 10.0 mi Calm Calm - N/A   Clear